Jefferson, OH

10:29 AM EST on February 11, 2016 (GMT -0500)
Ashtabula County

Weather History for KHZY - December, 2013

Change the Weather History Date:

Wednesday, December 25, 2013

  Actual Average (KYNG) Record (KYNG)
Temperature  
Mean Temperature 14 °F 28 °F  
Max Temperature 26 °F 34 °F 66 °F (1982)
Min Temperature 1 °F 21 °F -12 °F (1983)
Degree Days  
Heating Degree Days 52 37  
Month to date heating degree days 848  
Since 1 July heating degree days 2177  
Cooling Degree Days 0 0  
Month to date cooling degree days 0  
Year to date cooling degree days 544  
Moisture  
Dew Point 7 °F    
Average Humidity 70    
Maximum Humidity 84    
Minimum Humidity 55    
Precipitation  
Precipitation 0.00 in 0.09 in - ()
Month to date precipitation 2.44  
Year to date precipitation 38.36  
Snow  
Snow 0.00 in 0.50 in - ()
Month to date snowfall 11.9  
Since 1 July snowfall 16.3  
Snow Depth -    
Sea Level Pressure  
Sea Level Pressure 30.39 in    
Wind  
Wind Speed 4 mph (South)    
Max Wind Speed 15 mph    
Max Gust Speed 22 mph    
Visibility 10 miles    
Events Snow    
T = Trace of Precipitation, MM = Missing Value Source: NWS Daily Summary

Daily Weather History Graph

Daily Weather History Graph

Search for Another Location

Airport or City:

Trip Planner

Search our weather history database for the weather conditions in past years. The results will help you decide how hot, cold, wet, or windy it might be!

Date:

Astronomy

Dec. 25, 2013 Rise Set
Actual Time 7:48 AM EST 4:57 PM EST
Civil Twilight 7:16 AM EST 5:29 PM EST
Nautical Twilight 6:41 AM EST 6:04 PM EST
Astronomical Twilight 6:07 AM EST 6:38 PM EST
Moon 12:10 AM EST (12/25) 12:05 PM EST (12/25)
Length of Visible Light 10h 12m
Length of Day
9h 08m
Waning Gibbous, 49% of the Moon is Illuminated
Dec 25
Waning Gibbous
Jan 1
New
Jan 7
First Quarter
Jan 15
Full
Jan 24
Last Quarter

Hourly Weather History & Observations

Time (EST) Temp. Windchill Dew Point Humidity Pressure Visibility Wind Dir Wind Speed Gust Speed Precip Events Conditions
12:23 AM 8.6 °F 2.0 °F 3.2 °F 79% 30.47 in 10.0 mi WSW 3.5 mph - N/A   Scattered Clouds
12:53 AM 5.0 °F -2.1 °F -0.0 °F 80% 30.53 in 10.0 mi SW 3.5 mph - N/A   Mostly Cloudy
1:35 AM 10.4 °F - 3.2 °F 73% 30.47 in 10.0 mi Calm Calm - N/A   Scattered Clouds
1:53 AM 6.1 °F - 1.9 °F 83% 30.52 in 10.0 mi Calm Calm - N/A   Partly Cloudy
2:15 AM 3.2 °F - -2.2 °F 78% 30.47 in 10.0 mi Calm Calm - N/A   Mostly Cloudy
2:53 AM 6.1 °F - -0.0 °F 76% 30.53 in 10.0 mi Calm Calm - N/A   Mostly Cloudy
3:09 AM 6.8 °F - 1.4 °F 79% 30.47 in 10.0 mi Calm Calm - N/A   Scattered Clouds
3:53 AM 1.9 °F - -4.0 °F 76% 30.54 in 10.0 mi Calm Calm - N/A   Clear
4:53 AM 3.0 °F - -2.9 °F 76% 30.53 in 10.0 mi Calm Calm - N/A   Clear
5:53 AM 3.0 °F -4.4 °F -0.9 °F 84% 30.52 in 10.0 mi SSW 3.5 mph - N/A   Clear
6:53 AM 9.0 °F 0.6 °F 3.0 °F 77% 30.51 in 10.0 mi South 4.6 mph - N/A   Partly Cloudy
7:53 AM 9.0 °F 2.4 °F 5.0 °F 84% 30.51 in 10.0 mi South 3.5 mph - N/A   Partly Cloudy
8:53 AM 14.0 °F 2.9 °F 9.0 °F 80% 30.47 in 10.0 mi SSE 8.1 mph - N/A   Overcast
9:53 AM 16.0 °F 5.3 °F 9.0 °F 74% 30.48 in 10.0 mi South 8.1 mph 17.3 mph N/A   Partly Cloudy
10:53 AM 18.0 °F 5.4 °F 9.0 °F 68% 30.45 in 10.0 mi South 11.5 mph - N/A   Scattered Clouds
11:53 AM 19.0 °F 5.0 °F 8.1 °F 62% 30.41 in 10.0 mi South 15.0 mph 21.9 mph N/A   Overcast
12:53 PM 19.9 °F 9.3 °F 9.0 °F 62% 30.39 in 10.0 mi South 9.2 mph - N/A   Overcast
1:53 PM 21.0 °F 10.6 °F 9.0 °F 60% 30.35 in 10.0 mi SSE 9.2 mph - N/A   Overcast
2:53 PM 21.9 °F 12.5 °F 9.0 °F 58% 30.33 in 10.0 mi South 8.1 mph - N/A   Overcast
3:53 PM 23.0 °F 13.1 °F 9.0 °F 55% 30.32 in 10.0 mi South 9.2 mph - N/A   Overcast
4:53 PM 23.0 °F 13.1 °F 10.9 °F 60% 30.31 in 8.0 mi South 9.2 mph - 0.00 in Snow Light Snow
5:53 PM 23.0 °F 13.9 °F 12.0 °F 63% 30.30 in 9.0 mi South 8.1 mph - 0.00 in Snow Light Snow
6:53 PM 24.1 °F 14.4 °F 12.0 °F 60% 30.28 in 10.0 mi South 9.2 mph - 0.00 in   Overcast
7:53 PM 24.1 °F 16.0 °F 12.0 °F 60% 30.27 in 10.0 mi SSE 6.9 mph - N/A   Overcast
8:53 PM 25.0 °F 17.1 °F 12.9 °F 60% 30.25 in 10.0 mi South 6.9 mph - N/A   Overcast
9:53 PM 25.0 °F 16.3 °F 14.0 °F 63% 30.24 in 10.0 mi SSW 8.1 mph - N/A   Overcast
10:53 PM 26.1 °F 17.6 °F 15.1 °F 63% 30.22 in 10.0 mi SSW 8.1 mph - N/A   Overcast
11:20 PM 26.6 °F 19.1 °F 15.8 °F 64% 30.17 in 10.0 mi SSW 6.9 mph - N/A   Overcast
11:39 PM 26.6 °F 19.1 °F 15.8 °F 64% 30.16 in 10.0 mi South 6.9 mph - N/A   Overcast
11:53 PM 26.1 °F 18.4 °F 16.0 °F 66% 30.19 in 10.0 mi South 6.9 mph - N/A   Overcast